Location: Barcelona
(41.3830°N, 2.1830°E)
Time: 16:34:56
(UTC+02:00)

ISS - Visible Passes

Search period start: 22 September 2018 00:00
Search period end: 02 October 2018 00:00
Orbit: 403 x 408 km, 51.6° (Epoch: 22 September)

Date Brightness Start Highest point End Pass type
(mag) Time Alt. Az. Time Alt. Az. Time Alt. Az.
22 Sep -2.4 20:23:51 10° S 20:26:25 21° SE 20:28:50 11° E visible
22 Sep -1.9 21:59:33 10° WSW 22:01:34 30° W 22:01:34 30° W visible
23 Sep -3.8 21:07:30 10° WSW 21:10:48 81° NW 21:12:17 30° NE visible
24 Sep -3.6 20:15:43 10° SW 20:18:55 52° SE 20:22:09 10° ENE visible
24 Sep -1.8 21:52:46 10° W 21:55:31 25° NNW 21:55:31 25° NNW visible
25 Sep -2.5 21:00:25 10° W 21:03:31 37° NNW 21:05:52 15° NE visible
26 Sep -3.4 20:08:14 10° WSW 20:11:31 64° NNW 20:14:49 10° NE visible
26 Sep -1.4 21:46:11 10° WNW 21:48:31 18° NNW 21:48:48 17° N visible
27 Sep -1.7 20:53:39 10° WNW 20:56:20 23° NNW 20:58:57 10° NNE visible
28 Sep -1.2 21:39:33 10° NW 21:41:29 14° N 21:41:42 14° N visible
29 Sep -1.3 20:47:00 10° NW 20:49:13 16° NNW 20:51:25 10° NNE visible
30 Sep -1.2 21:32:35 10° NNW 21:34:22 14° N 21:34:22 14° N visible
01 Oct -1.2 20:40:16 10° NW 20:42:07 14° N 20:43:58 10° NNE visible
